SL-16 DEB

Satellite information

Favourite Embed

Satellite Type and Status

DEBRISIN ORBIT

Key statistics

Satellite SL-16 DEB at a glance.

Uptime

11898

Days in orbit

Revolutions

≈ 14.4

Per day

Orbit

LEO

Low Earth Orbit

Inclination

71.1

Latest

Satellite identification and parameters

Extended collection of information and parameters for SL-16 DEB.

Object identification

Identified? True

Debris? True

Object name: SL-16 DEB

International designator: 1993-016CT

Object number (NORAD): 42239

Object ID (CCSDS): 42239

Country: COMMONWEALTH OF INDEPENDENT STATES (CIS)

Current information (Y/N): Y

RCS size: SMALL

Orbital parameters

Period: 99.819 minutes

Inclination: 71.1263 deg

SMA: 7128.019 km

Apoapsis: 814.401 km

Periapsis: 685.368 km

RAAN: 21.6462 deg

Eccentricy: 0.0090511

Argument of periapsis: 258.1425 deg

Mean anomaly: 100.9552 deg

Mean motion: 14.42611739 rev/day

Mean motion (dot): 0.00018351 rev/day2

B* drag term: 0.0052559 1/REarth

Two-line elements (TLE)

Creation date: Oct. 21, 2025, 11:56 p.m.

Reference frame: TEME

Reference center: EARTH

Epoch: Oct. 21, 2025, 2:36 p.m. UTC

TLE line 0: 0 SL-16 DEB

TLE line 1: 1 42239U 93016CT 25294.60842638 .00018351 00000-0 52559-2 0 9994

TLE line 2: 2 42239 71.1263 21.6462 0090511 258.1425 100.9552 14.42611739900038

Live tracking on map

Real-time ground track for satellite SL-16 DEB.

In-orbit conjunctions

A list of the most updated potential collisions computed for object SL-16 DEB.

Target Orbit TCA Probability of collision Miss distance Type
FENGYUN 1C DEB SSO 2025-02-11 04:27:02 0.000123473 354.0 (m) DEBRIS
CZ-6A DEB LEO 2025-01-31 01:02:39 0.0001085781 306.0 (m) DEBRIS

Associated space launch

Second generation ELING satellite

SL-16 DEB was lifted into orbit during the mission ‘Zenit-2 | Tselina-2 13’, on board a Zenit-2 space rocket.

The launch took place on March 26, 1993, 2:21 a.m. from 45/1.

For more information about the launch, click the button.

Launch to space Zenit-2 | Tselina-2 13
Zenit-2 | Tselina-2 13

Agency: N/A

Status: Launch Successful

Launch date: March 26, 1993, 2:21 a.m. UTC

Rocket: Zenit-2

Launch pad: 45/1

Location: Baikonur Cosmodrome, Republic of Kazakhstan

...

Latest news about this satellite

There are no fresh news available about this satellite. Check back as we update our databases every day.


Newsletter sign-up

Weekly statistics, charts and insights to help you stay on top of the space industry.